{"data":{"norad_id":50181,"epoch":"2026-09-19T22:47:39.251904Z","epoch_age_seconds":92511,"freshness":"FRESH","line1":"1 50181U 21125AB  26262.94975986  .00001841  00000+0  71098-4 0  9993","line2":"2 50181  53.1596  84.4600 0001150  83.1712 276.9421 15.31693796266103","mean_motion":15.31693796,"eccentricity":0.000115,"inclination_deg":53.1596,"raan_deg":84.46,"arg_perigee_deg":83.1712,"mean_anomaly_deg":276.9421,"bstar":7.1098e-5,"rev_number":26610,"period_min":94.01356875379,"perigee_km":469.97086610799,"apogee_km":471.54611207048,"semimajor_km":6848.8954890892,"source":"CELESTRAK","updated_at":"2026-09-20T09:00:39.416948Z"}}